Kezdőlap
METAR-TAF:

METAR-TAF

Repülőterek :

Johannesburg, Dél-afrikai Köztársaság

földrajzi szélesség: 26-09S, földrajzi hosszúság: 28-00E, magasság: 1626 m

Jelenlegi meteorológiai megfigyelések

A jelentés 23 perccel ezelõtt készült, 06:00 UTC
Szélcsend
Hőmérséklet 14°C
Páratartalom 41%
Légköri nyomás 1027 hPa

METAR: FAJB 160600Z AUTO 00000KT //// // ////// 14/01 Q1027

Idő: 08:23 (06:23 UTC)


TAF: hiányzik

Meteorológiai megfigyelések és előrejelzések több, mint 4000 repülőtéren (METAR és TAF jelentéseket).

A térképen piros és sárga pontok jelzik az elérhető meteorológiai állomásokat.

Mozgassa az egeret a pont fölött, hogy megjelenjen az állomás neve.

Azután kattintson az időjárási megfigyelések és előrejelzések megtekintéséhez.

A térkép megváltoztatása: kattintson a fekete keresztel jelölt zöld gombra ráközelítéshez, a vonallal jelölt zöld gombra távolításhoz, vagy a zöld nyilakra a szomszédos térképek eléréséhez.


METAR-TAF: